• Currently

    Reported at Minneapolis, Minneapolis-St. Paul International Airport, MN
    6:53 PM CST WED APR 26 2017
  • 39°F4°C
  • Drizzle
    Drizzle
  • Feels Like:33°F0°CDew Point:32°F0°CHumidity:75% Winds:N 12 mph 19 kph
    Pressure:29.56 in1001 hPaVisibility:10.00 miles16090.00 meters
Time Weather Temp Dew Point
Humidity Winds Visibility Pressure Precipitation
1 hr 24 hr
Tuesday, April 18
23:53 23:53 Cloudy Cloudy 52°F11°C 30°F-1°C 43% E 8 mphE 13 kph 10.0 miles16.1 km 30.09 in1019 hPa 0.00 in0.00 mm --
22:53 22:53 Cloudy Cloudy 52°F11°C 29°F-2°C 41% E 7 mphE 11 kph 10.0 miles16.1 km 30.12 in1020 hPa 0.00 in0.00 mm --
21:53 21:53 Cloudy Cloudy 55°F13°C 25°F-4°C 31% SE 3 mphSE 6 kph 10.0 miles16.1 km 30.15 in1021 hPa 0.00 in0.00 mm --
20:53 20:53 Cloudy Cloudy 55°F13°C 24°F-4°C 30% CalmCalm 10.0 miles16.1 km 30.12 in1020 hPa 0.00 in0.00 mm --
19:53 19:53 Mostly Cloudy Mostly Cloudy 55°F13°C 25°F-4°C 31% N 5 mphN 7 kph 10.0 miles16.1 km 30.12 in1020 hPa 0.00 in0.00 mm --
18:53 18:53 Mostly Cloudy Mostly Cloudy 58°F14°C 23°F-5°C 26% CalmCalm 10.0 miles16.1 km 30.12 in1020 hPa 0.00 in0.00 mm --
17:53 17:53 Partly Cloudy Partly Cloudy 57°F14°C 24°F-4°C 28% N 5 mphN 7 kph 10.0 miles16.1 km 30.15 in1021 hPa 0.00 in0.00 mm --
16:53 16:53 Mostly Sunny Mostly Sunny 58°F14°C 26°F-3°C 29% WNW 5 mphWNW 7 kph 10.0 miles16.1 km 30.15 in1021 hPa 0.00 in0.00 mm --
15:53 15:53 Mostly Sunny Mostly Sunny 59°F15°C 30°F-1°C 33% NW 7 mphNW 11 kph 10.0 miles16.1 km 30.15 in1021 hPa 0.00 in0.00 mm --
14:53 14:53 Mostly Sunny Mostly Sunny 56°F13°C 30°F-1°C 37% N 3 mphN 6 kph 10.0 miles16.1 km 30.18 in1022 hPa 0.00 in0.00 mm --
13:53 13:53 Mostly Sunny Mostly Sunny 55°F13°C 29°F-2°C 37% N 5 mphN 7 kph 10.0 miles16.1 km 30.21 in1023 hPa 0.00 in0.00 mm --
12:53 12:53 Mostly Sunny Mostly Sunny 54°F12°C 28°F-2°C 37% N 3 mphN 6 kph 10.0 miles16.1 km 30.21 in1023 hPa 0.00 in0.00 mm --
11:53 11:53 Sunny Sunny 52°F11°C 27°F-3°C 38% N 12 mphN 19 kph 10.0 miles16.1 km 30.24 in1024 hPa 0.00 in0.00 mm --
10:53 10:53 Sunny Sunny 50°F10°C 27°F-3°C 41% N 10 mphN 17 kph 10.0 miles16.1 km 30.24 in1024 hPa 0.00 in0.00 mm --
09:53 09:53 Mostly Sunny Mostly Sunny 49°F9°C 25°F-4°C 39% N 10 mphN 17 kph 10.0 miles16.1 km 30.21 in1023 hPa 0.00 in0.00 mm --
08:53 08:53 Mostly Sunny Mostly Sunny 48°F9°C 24°F-4°C 39% NNW 12 mphNNW 19 kph 10.0 miles16.1 km 30.21 in1023 hPa 0.00 in0.00 mm --
07:53 07:53 Partly Cloudy Partly Cloudy 46°F8°C 22°F-6°C 38% NNW 12 mphNNW 19 kph 10.0 miles16.1 km 30.21 in1023 hPa 0.00 in0.00 mm --
06:53 06:53 Partly Cloudy Partly Cloudy 45°F7°C 28°F-2°C 52% WNW 9 mphWNW 15 kph 10.0 miles16.1 km 30.21 in1023 hPa 0.00 in0.00 mm --
05:53 05:53 Partly Cloudy Partly Cloudy 46°F8°C 33°F1°C 61% WNW 8 mphWNW 13 kph 10.0 miles16.1 km 30.18 in1022 hPa 0.00 in0.00 mm --
04:53 04:53 Mostly Cloudy Mostly Cloudy 48°F9°C 35°F2°C 61% WNW 8 mphWNW 13 kph 10.0 miles16.1 km 30.15 in1021 hPa 0.00 in0.00 mm --
03:53 03:53 Mostly Cloudy Mostly Cloudy 49°F9°C 35°F2°C 59% WNW 9 mphWNW 15 kph 10.0 miles16.1 km 30.15 in1021 hPa 0.00 in0.00 mm --
02:53 02:53 Cloudy Cloudy 51°F11°C 34°F1°C 52% WNW 9 mphWNW 15 kph 10.0 miles16.1 km 30.12 in1020 hPa 0.00 in0.00 mm --
01:53 01:53 Mostly Cloudy Mostly Cloudy 54°F12°C 32°F0°C 43% NNW 6 mphNNW 9 kph 10.0 miles16.1 km 30.12 in1020 hPa 0.00 in0.00 mm --
00:53 00:53 Cloudy Cloudy 54°F12°C 32°F0°C 43% NNW 6 mphNNW 9 kph 10.0 miles16.1 km 30.12 in1020 hPa 0.00 in0.00 mm --